Time,TemperatureF,DewpointF,PressureIn,WindDirection,WindDirectionDegrees,WindSpeedMPH,WindSpeedGustMPH,Humidity,HourlyPrecipIn,Conditions,Clouds,dailyrainin,SoftwareType,DateUTC
2013-07-09 00:01:00,55.0,43.0,30.22,SSW,204,1.0,-999.0,64,-99.99,,,-99.99,,2013-07-09 06:01:00,
2013-07-09 00:11:00,54.0,44.0,30.22,NNE,15,2.0,-999.0,69,-99.99,,,-99.99,,2013-07-09 06:11:00,
2013-07-09 00:22:00,54.0,44.0,30.22,NNE,15,1.0,-999.0,70,-99.99,,,-99.99,,2013-07-09 06:22:00,
2013-07-09 00:33:00,54.0,44.0,30.20,NNE,15,0.0,-999.0,70,-99.99,,,-99.99,,2013-07-09 06:33:00,
2013-07-09 00:43:00,54.0,44.0,30.21,NNE,15,0.0,-999.0,70,-99.99,,,-99.99,,2013-07-09 06:43:00,
2013-07-09 00:53:00,53.0,44.0,30.21,NNE,15,0.0,-999.0,71,-99.99,,,-99.99,,2013-07-09 06:53:00,
2013-07-09 01:02:00,53.0,44.0,30.21,West,268,1.0,-999.0,72,-99.99,,,-99.99,,2013-07-09 07:02:00,
2013-07-09 01:11:00,53.0,45.0,30.21,West,268,2.0,-999.0,73,-99.99,,,-99.99,,2013-07-09 07:11:00,
2013-07-09 01:33:00,54.0,45.0,30.21,WSW,247,3.0,-999.0,71,-99.99,,,-99.99,,2013-07-09 07:33:00,
2013-07-09 01:42:00,55.0,45.0,30.21,WSW,237,3.0,-999.0,68,-99.99,,,-99.99,,2013-07-09 07:42:00,
2013-07-09 01:53:00,56.0,45.0,30.22,SSW,209,3.0,-999.0,66,-99.99,,,-99.99,,2013-07-09 07:53:00,
2013-07-09 02:01:00,56.0,44.0,30.22,SSW,210,1.0,-999.0,65,-99.99,,,-99.99,,2013-07-09 08:01:00,
2013-07-09 02:11:00,54.0,43.0,30.22,SSW,199,0.0,-999.0,67,-99.99,,,-99.99,,2013-07-09 08:11:00,
2013-07-09 02:22:00,53.0,43.0,30.22,SE,146,0.0,-999.0,68,-99.99,,,-99.99,,2013-07-09 08:22:00,
2013-07-09 02:33:00,52.0,43.0,30.22,SE,146,0.0,-999.0,71,-99.99,,,-99.99,,2013-07-09 08:33:00,
2013-07-09 02:43:00,50.0,42.0,30.23,SE,143,1.0,-999.0,74,-99.99,,,-99.99,,2013-07-09 08:43:00,
2013-07-09 02:52:00,50.0,43.0,30.22,SE,141,0.0,-999.0,77,-99.99,,,-99.99,,2013-07-09 08:52:00,
2013-07-09 03:02:00,50.0,42.0,30.23,SE,141,1.0,-999.0,75,-99.99,,,-99.99,,2013-07-09 09:02:00,
2013-07-09 03:11:00,51.0,43.0,30.23,SE,141,1.0,-999.0,75,-99.99,,,-99.99,,2013-07-09 09:11:00,
2013-07-09 03:22:00,51.0,43.0,30.23,SE,141,1.0,-999.0,75,-99.99,,,-99.99,,2013-07-09 09:22:00,
2013-07-09 03:34:00,51.0,43.0,30.23,SE,141,1.0,-999.0,75,-99.99,,,-99.99,,2013-07-09 09:34:00,
2013-07-09 03:42:00,51.0,43.0,30.23,SE,142,0.0,-999.0,75,-99.99,,,-99.99,,2013-07-09 09:42:00,
2013-07-09 03:52:00,51.0,43.0,30.23,SE,142,0.0,-999.0,75,-99.99,,,-99.99,,2013-07-09 09:52:00,
2013-07-09 04:01:00,51.0,43.0,30.23,SE,142,0.0,-999.0,73,-99.99,,,-99.99,,2013-07-09 10:01:00,
2013-07-09 04:22:00,51.0,43.0,30.24,SE,142,0.0,-999.0,75,-99.99,,,-99.99,,2013-07-09 10:22:00,
2013-07-09 04:33:00,51.0,43.0,30.24,SE,142,1.0,-999.0,74,-99.99,,,-99.99,,2013-07-09 10:33:00,
2013-07-09 04:42:00,50.0,42.0,30.24,SE,142,1.0,-999.0,75,-99.99,,,-99.99,,2013-07-09 10:42:00,
2013-07-09 04:52:00,51.0,43.0,30.24,SE,142,0.0,-999.0,75,-99.99,,,-99.99,,2013-07-09 10:52:00,
2013-07-09 05:01:00,51.0,43.0,30.24,SSE,149,1.0,-999.0,74,-99.99,,,-99.99,,2013-07-09 11:01:00,
2013-07-09 05:11:00,50.0,43.0,30.24,SSE,149,1.0,-999.0,76,-99.99,,,-99.99,,2013-07-09 11:11:00,
2013-07-09 05:22:00,50.0,43.0,30.24,South,184,1.0,-999.0,76,-99.99,,,-99.99,,2013-07-09 11:22:00,
2013-07-09 05:33:00,50.0,43.0,30.24,South,184,1.0,-999.0,77,-99.99,,,-99.99,,2013-07-09 11:33:00,
2013-07-09 05:42:00,49.0,42.0,30.25,NNW,336,1.0,-999.0,76,-99.99,,,-99.99,,2013-07-09 11:42:00,
2013-07-09 05:53:00,46.0,40.0,30.25,North,355,1.0,-999.0,80,-99.99,,,-99.99,,2013-07-09 11:53:00,
2013-07-09 06:01:00,45.0,40.0,30.26,North,355,1.0,-999.0,83,-99.99,,,-99.99,,2013-07-09 12:01:00,
2013-07-09 06:11:00,43.0,39.0,30.27,NE,38,1.0,-999.0,85,-99.99,,,-99.99,,2013-07-09 12:11:00,
2013-07-09 06:22:00,42.0,38.0,30.27,NNE,27,1.0,-999.0,87,-99.99,,,-99.99,,2013-07-09 12:22:00,
2013-07-09 06:33:00,43.0,40.0,30.27,NNE,27,1.0,-999.0,88,-99.99,,,-99.99,,2013-07-09 12:33:00,
2013-07-09 06:43:00,44.0,40.0,30.27,NNE,18,1.0,-999.0,86,-99.99,,,-99.99,,2013-07-09 12:43:00,
2013-07-09 06:52:00,44.0,40.0,30.28,NE,37,1.0,-999.0,86,-99.99,,,-99.99,,2013-07-09 12:52:00,
2013-07-09 08:34:00,58.0,45.0,30.33,North,355,2.0,-999.0,63,-99.99,,,-99.99,,2013-07-09 14:34:00,
2013-07-09 08:43:00,59.0,45.0,30.33,NNE,15,2.0,-999.0,59,-99.99,,,-99.99,,2013-07-09 14:43:00,
2013-07-09 08:53:00,60.0,46.0,30.33,NNE,28,2.0,-999.0,60,-99.99,,,-99.99,,2013-07-09 14:53:00,
2013-07-09 09:33:00,64.0,46.0,30.33,NNW,342,0.0,-999.0,52,-99.99,,,-99.99,,2013-07-09 15:33:00,
2013-07-09 09:43:00,66.0,46.0,30.33,NE,50,0.0,-999.0,48,-99.99,,,-99.99,,2013-07-09 15:43:00,
2013-07-09 09:52:00,67.0,46.0,30.33,NE,50,0.0,-999.0,46,-99.99,,,-99.99,,2013-07-09 15:52:00,
2013-07-09 10:33:00,69.0,45.0,30.32,ESE,121,1.0,-999.0,42,-99.99,,,-99.99,,2013-07-09 16:33:00,
2013-07-09 10:52:00,70.0,46.0,30.34,SW,231,1.0,-999.0,42,-99.99,,,-99.99,,2013-07-09 16:52:00,
2013-07-09 11:02:00,71.0,48.0,30.33,SW,236,2.0,-999.0,44,-99.99,,,-99.99,,2013-07-09 17:02:00,
2013-07-09 11:45:00,73.0,49.0,30.33,West,271,1.0,-999.0,43,-99.99,,,-99.99,,2013-07-09 17:45:00,
2013-07-09 11:53:00,73.0,48.0,30.33,SSE,153,2.0,-999.0,41,-99.99,,,-99.99,,2013-07-09 17:53:00,
2013-07-09 12:01:00,75.0,48.0,30.32,WSW,244,2.0,-999.0,39,-99.99,,,-99.99,,2013-07-09 18:01:00,
2013-07-09 12:32:00,78.0,45.0,30.31,South,180,2.0,-999.0,31,-99.99,,,-99.99,,2013-07-09 18:32:00,
2013-07-09 12:42:00,79.0,44.0,30.31,SSW,196,3.0,-999.0,29,-99.99,,,-99.99,,2013-07-09 18:42:00,
2013-07-09 12:52:00,81.0,42.0,30.31,South,182,7.0,-999.0,25,-99.99,,,-99.99,,2013-07-09 18:52:00,
2013-07-09 13:01:00,81.0,41.0,30.31,South,180,7.0,-999.0,24,-99.99,,,-99.99,,2013-07-09 19:01:00,
2013-07-09 13:11:00,81.0,36.0,30.31,SSE,163,6.0,-999.0,20,-99.99,,,-99.99,,2013-07-09 19:11:00,
2013-07-09 13:42:00,82.0,36.0,30.30,South,188,10.0,-999.0,19,-99.99,,,-99.99,,2013-07-09 19:42:00,
2013-07-09 13:52:00,83.0,35.0,30.30,SSW,197,8.0,-999.0,18,-99.99,,,-99.99,,2013-07-09 19:52:00,
2013-07-09 14:01:00,82.0,34.0,30.30,SSW,205,10.0,-999.0,18,-99.99,,,-99.99,,2013-07-09 20:01:00,
2013-07-09 14:11:00,82.0,36.0,30.30,WSW,256,9.0,-999.0,19,-99.99,,,-99.99,,2013-07-09 20:11:00,
2013-07-09 14:32:00,82.0,34.0,30.30,WSW,240,7.0,-999.0,18,-99.99,,,-99.99,,2013-07-09 20:32:00,
2013-07-09 14:42:00,82.0,34.0,30.30,SW,215,7.0,-999.0,18,-99.99,,,-99.99,,2013-07-09 20:42:00,
2013-07-09 14:52:00,82.0,31.0,30.30,West,266,7.0,-999.0,16,-99.99,,,-99.99,,2013-07-09 20:52:00,
2013-07-09 15:01:00,82.0,34.0,30.30,WNW,286,7.0,-999.0,18,-99.99,,,-99.99,,2013-07-09 21:01:00,
2013-07-09 15:11:00,83.0,35.0,30.30,SSW,196,8.0,-999.0,18,-99.99,,,-99.99,,2013-07-09 21:11:00,
2013-07-09 15:22:00,83.0,36.0,30.30,SSW,194,5.0,-999.0,19,-99.99,,,-99.99,,2013-07-09 21:22:00,
2013-07-09 15:32:00,84.0,33.0,30.29,SW,235,10.0,-999.0,16,-99.99,,,-99.99,,2013-07-09 21:32:00,
2013-07-09 15:42:00,83.0,35.0,30.29,SW,227,9.0,-999.0,18,-99.99,,,-99.99,,2013-07-09 21:42:00,
2013-07-09 15:52:00,84.0,33.0,30.29,SSW,202,8.0,-999.0,16,-99.99,,,-99.99,,2013-07-09 21:52:00,
2013-07-09 16:01:00,83.0,34.0,30.29,West,261,9.0,-999.0,17,-99.99,,,-99.99,,2013-07-09 22:01:00,
2013-07-09 16:11:00,83.0,36.0,30.29,SW,220,8.0,-999.0,19,-99.99,,,-99.99,,2013-07-09 22:11:00,
2013-07-09 16:33:00,83.0,31.0,30.29,West,276,9.0,-999.0,15,-99.99,,,-99.99,,2013-07-09 22:33:00,
2013-07-09 16:42:00,84.0,31.0,30.29,South,190,8.0,-999.0,15,-99.99,,,-99.99,,2013-07-09 22:42:00,
2013-07-09 16:53:00,84.0,34.0,30.28,WSW,240,9.0,-999.0,17,-99.99,,,-99.99,,2013-07-09 22:53:00,
2013-07-09 17:01:00,83.0,31.0,30.28,WSW,247,9.0,-999.0,15,-99.99,,,-99.99,,2013-07-09 23:01:00,
2013-07-09 17:11:00,83.0,29.0,30.28,SSW,198,8.0,-999.0,14,-99.99,,,-99.99,,2013-07-09 23:11:00,
2013-07-09 17:33:00,83.0,31.0,30.28,West,279,7.0,-999.0,15,-99.99,,,-99.99,,2013-07-09 23:33:00,
2013-07-09 18:01:00,82.0,30.0,30.27,West,261,12.0,-999.0,15,-99.99,,,-99.99,,2013-07-10 00:01:00,
2013-07-09 18:11:00,83.0,32.0,30.27,WNW,287,8.0,-999.0,16,-99.99,,,-99.99,,2013-07-10 00:11:00,
2013-07-09 18:33:00,83.0,35.0,30.27,SW,217,5.0,-999.0,18,-99.99,,,-99.99,,2013-07-10 00:33:00,
2013-07-09 18:52:00,82.0,36.0,30.26,WSW,251,5.0,-999.0,19,-99.99,,,-99.99,,2013-07-10 00:52:00,
2013-07-09 19:11:00,81.0,33.0,30.26,West,269,5.0,-999.0,18,-99.99,,,-99.99,,2013-07-10 01:11:00,
2013-07-09 19:32:00,81.0,35.0,30.26,WNW,288,2.0,-999.0,19,-99.99,,,-99.99,,2013-07-10 01:32:00,
2013-07-09 19:43:00,81.0,37.0,30.26,West,264,1.0,-999.0,21,-99.99,,,-99.99,,2013-07-10 01:43:00,
2013-07-09 19:53:00,81.0,37.0,30.26,West,263,1.0,-999.0,21,-99.99,,,-99.99,,2013-07-10 01:53:00,
2013-07-09 20:01:00,80.0,35.0,30.26,WSW,258,1.0,-999.0,20,-99.99,,,-99.99,,2013-07-10 02:01:00,
2013-07-09 20:11:00,80.0,41.0,30.26,West,259,0.0,-999.0,25,-99.99,,,-99.99,,2013-07-10 02:11:00,
2013-07-09 20:33:00,79.0,41.0,30.26,West,259,0.0,-999.0,26,-99.99,,,-99.99,,2013-07-10 02:33:00,
2013-07-09 23:52:00,51.0,42.0,30.29,NE,38,0.0,-999.0,71,-99.99,,,-99.99,,2013-07-10 05:52:00,